User: anonymous   Login
Location: Unspecified
(0.0000°N, 0.0000°E)
Time: 11:06:21
(UTC+00:00)
Language:

ZACube-1 - Orbit

View from above orbital plane
View from above orbital plane
View from above satellite
View from above satellite

Ground track
Ground track

The orbit data is extracted from the following two-line orbital elements,

1 39417U 13066B   19348.45994522  .00000169  00000-0  27486-4 0  9992
2 39417  97.5610 351.9038 0059241 166.4516 193.8305 14.81191733327507
Epoch (UTC): 14 December 2019 11:02:19
Eccentricity: 0.0059241
inclination: 97.5610°
perigee height: 584 km
apogee height: 667 km
right ascension of ascending node: 351.9038°
argument of perigee: 166.4516°
revolutions per day: 14.81191733
mean anomaly at epoch: 193.8305°
orbit number at epoch: 32750

The dashed part of the orbit path shows where the satellite is in the earth's shadow,  

DLR